[[{"header":{"parameterUnit":"m.s-1","parameterCategory":1,"la1":30.2991,"la2":30.254,"lo1":-89.0895,"lo2":-89.0444,"dy":0.0017,"dx":0.0017,"nx":28,"ny":28,"refTime":"2024-03-15T21:00:00:Z","depth":0,"parameterNumber":2,"parameterNumberName":"U-component_of_WINDS"},"data":[0,0,0,0,0,0,0,0,0,0,0,0,0,0,0,0,0,0,0,0,0,0,0,0,0,0,0,0,0,0,0,0,0,0,0,0,0,0,0,0,0,0,0,0,0,0,0,0,0,0,0,0,0,0,0,0,0,0,0.3417,0.3417,0,0.3477,0.3478,0.3478,0.3502,0.3502,0.3502,0.3502,0.3566,0.3567,0.3569,0,0,0,0,0,0,0,0,0,0,0,0,0,0.3325,0.3327,0.3416,0.3417,0.3418,0.3477,0.3478,0.3478,0.3502,0.3502,0.3502,0.3502,0.3565,0.3567,0.3569,0,0,0,0,0,0,0,0,0,0,0,0,0,0.3373,0.3327,0.3416,0.3437,0.3439,0.3477,0.3478,0.3479,0.3502,0.3502,0.3502,0.3502,0.3564,0.3567,0.357,0.3592,0,0,0.3578,0.3579,0,0,0,0,0,0,0,0,0.337,0.3376,0.3433,0.3436,0.3438,0.3482,0.3469,0.3517,0.3502,0.3478,0.3502,0.3501,0.3538,0.3543,0.3555,0.3595,0.3597,0.3578,0.358,0.3581,0.3582,0,0,0,0,0,0,0,0.3367,0.3374,0.344,0.3434,0.3437,0.3444,0.3451,0.3478,0.3509,0.348,0.3482,0.3489,0.3539,0.3552,0.3557,0.3598,0.3578,0.3581,0.3583,0.3584,0.3662,0.3662,0,0,0,0,0,0,0.336,0.3371,0.3439,0.3442,0.3403,0.3446,0.3453,0.3468,0.3509,0.3515,0.3489,0.349,0.3548,0.3553,0.3559,0.3589,0.3581,0.3584,0.3586,0.3661,0.3662,0.3662,0,0,0,0,0,0,0.3358,0.3366,0.3436,0.3407,0.3417,0.3448,0.3464,0.3469,0.3482,0.3515,0.3521,0.3496,0.3548,0.3555,0.3584,0.3591,0.3585,0.3588,0.3661,0.3662,0.3662,0.3648,0,0,0,0,0,0,0.3355,0.3365,0.3372,0.3407,0.3418,0.3459,0.3465,0.3471,0.3487,0.3488,0.3523,0.3529,0.3548,0.3579,0.3587,0.3595,0.359,0.366,0.3661,0.3662,0.3647,0.3648,0.3648,0,0,0,0,0,0.3352,0.3366,0.3373,0.3381,0.3428,0.3459,0.3465,0.3486,0.3487,0.3496,0.3517,0.3528,0.3589,0.3582,0.359,0.36,0.366,0.3661,0.3662,0.3647,0.3648,0.3648,0,0,0,0,0,0,0.3331,0.3371,0.3379,0.3404,0.3428,0.3463,0.3474,0.3485,0.351,0.351,0.3536,0.3544,0.3571,0.3588,0.358,0.3624,0.3626,0.3628,0.3612,0.3612,0.3612,0.3608,0.3592,0,0,0,0,0,0.333,0.335,0.3384,0.3404,0.3415,0.3443,0.3457,0.3471,0.3497,0.3507,0.3531,0.3557,0.3582,0.3598,0.3623,0.365,0.3659,0.3661,0.3661,0.3661,0.3663,0.3681,0.3682,0.3665,0.3665,0.3665,0,0,0.3327,0.3351,0.3362,0.34,0.342,0.3443,0.3451,0.3474,0.3491,0.3511,0.354,0.3558,0.3589,0.3617,0.3631,0.3633,0.367,0.3662,0.3662,0.3664,0.3682,0.3684,0.3685,0.3666,0.3666,0.3666,0,0,0.3333,0.3352,0.3371,0.3392,0.3422,0.3441,0.3446,0.3479,0.3492,0.3522,0.3538,0.3559,0.3602,0.3623,0.364,0.3657,0.3668,0.3664,0.3665,0.3682,0.3683,0.3684,0.3692,0.3694,0.3666,0.3666,0.3666,0,0.3325,0.3358,0.338,0.3402,0.3419,0.3439,0.3459,0.3478,0.3515,0.3527,0.3528,0.3584,0.3605,0.364,0.3644,0.3657,0.3664,0.366,0.3681,0.3682,0.3684,0.3691,0.3694,0.3665,0.3665,0.3666,0.3666,0,0.3348,0.3371,0.3383,0.3419,0.3437,0.3458,0.3485,0.3501,0.3514,0.3533,0.3564,0.3591,0.3623,0.3632,0.3645,0.367,0.367,0.3676,0.3677,0.3685,0.3692,0.3695,0.3665,0.3665,0.3665,0.3665,0,0,0.3341,0.339,0.3394,0.3412,0.3448,0.3467,0.349,0.3521,0.3535,0.3561,0.3582,0.3618,0.3624,0.3643,0.3659,0.3674,0.3688,0.3678,0.3679,0.368,0.3718,0.3714,0.3717,0.3695,0.3696,0.3696,0.3716,0,0.3353,0.3394,0.3416,0.3448,0.3471,0.3491,0.3512,0.3537,0.3556,0.3579,0.36,0.3626,0.3631,0.3643,0.3659,0.3682,0.3696,0.3681,0.3717,0.3718,0.3709,0.3721,0.3716,0.3733,0.3719,0.372,0.372,0,0.3371,0.3397,0.3432,0.3467,0.3478,0.3495,0.3527,0.3548,0.3578,0.3591,0.3613,0.3629,0.3656,0.3656,0.3695,0.3684,0.3701,0.3715,0.3716,0.372,0.3719,0.3726,0.3739,0.3742,0.3725,0.3724,0.3724,0,0.3364,0.3408,0.3435,0.3449,0.349,0.3503,0.3521,0.3551,0.3569,0.3596,0.3609,0.3639,0.3656,0.368,0.3705,0.3702,0.3742,0.3743,0.3754,0.3754,0.3762,0.3761,0.3778,0.3771,0.3771,0.3771,0.3771,0,0.3375,0.3396,0.3432,0.3449,0.3474,0.3499,0.3523,0.3543,0.357,0.3592,0.3611,0.3632,0.3663,0.3688,0.3708,0.3738,0.3745,0.3757,0.3762,0.3756,0.3754,0.3767,0.3767,0.3772,0.3771,0.3771,0.3771,0,0.3371,0.3396,0.3427,0.3464,0.3474,0.3491,0.3524,0.3542,0.3563,0.359,0.3599,0.3631,0.3662,0.3689,0.3729,0.3743,0.3774,0.378,0.3764,0.3767,0.3777,0.3776,0.3803,0.3809,0.3797,0.3797,0.3797,0,0.3376,0.3392,0.3432,0.3448,0.3466,0.3491,0.351,0.3536,0.3555,0.3592,0.3606,0.3638,0.3665,0.3714,0.3742,0.3774,0.3781,0.3789,0.3786,0.378,0.3783,0.3782,0.3784,0.3789,0.3789,0.3789,0.3789,0,0.3383,0.3395,0.342,0.3451,0.3473,0.3498,0.3525,0.3537,0.3569,0.3589,0.3621,0.3642,0.3684,0.3716,0.3752,0.3772,0.3786,0.3789,0.3794,0.3788,0.3778,0.3785,0.3765,0.3788,0.3788,0.3788,0.3788,0.3788,0.3384,0.3401,0.3432,0.346,0.3483,0.3508,0.3527,0.355,0.3577,0.3613,0.3627,0.366,0.3692,0.3741,0.3762,0.3789,0.3791,0.3797,0.3799,0.38,0.38,0.3773,0.3795,0.3795,0.3795,0.3795,0.3796,0,0.3393,0.3414,0.344,0.3477,0.35,0.3511,0.3541,0.356,0.3589,0.3617,0.3644,0.3681,0.3714,0.3745,0.3779,0.3795,0.3803,0.3803,0.3803,0.3808,0.3795,0.3788,0.3797,0.3797,0.3797,0.3797,0.3797,0.3797,0.34,0.3429,0.3446,0.3487,0.3509,0.3541,0.3557,0.3581,0.3604,0.3645,0.3672,0.3692,0.3722,0.3759,0.379,0.3799,0.3811,0.381,0.3821,0.3809,0.3808,0.3808,0.3801,0.3812,0.3812,0.3831,0.3831,0.3831]},{"header":{"parameterUnit":"m.s-1","parameterCategory":1,"la1":30.2991,"la2":30.254,"lo1":-89.0895,"lo2":-89.0444,"dy":0.0017,"dx":0.0017,"nx":28,"ny":28,"refTime":"2024-03-15T21:00:00:Z","depth":0,"parameterNumber":3,"parameterNumberName":"V-component_of_WINDS"},"data":[0,0,0,0,0,0,0,0,0,0,0,0,0,0,0,0,0,0,0,0,0,0,0,0,0,0,0,0,0,0,0,0,0,0,0,0,0,0,0,0,0,0,0,0,0,0,0,0,0,0,0,0,0,0,0,0,0,0,-2.1889,-2.1888,0,-2.1809,-2.1808,-2.1807,-2.1755,-2.1755,-2.1755,-2.1754,-2.1668,-2.1666,-2.1664,0,0,0,0,0,0,0,0,0,0,0,0,0,-2.1992,-2.199,-2.1889,-2.1888,-2.1887,-2.1809,-2.1808,-2.1807,-2.1755,-2.1755,-2.1755,-2.1754,-2.1669,-2.1666,-2.1664,0,0,0,0,0,0,0,0,0,0,0,0,0,-2.1933,-2.199,-2.1889,-2.1852,-2.1848,-2.181,-2.1808,-2.1807,-2.1755,-2.1755,-2.1755,-2.1754,-2.1669,-2.1666,-2.1664,-2.1655,0,0,-2.1654,-2.1653,0,0,0,0,0,0,0,0,-2.1937,-2.1929,-2.1858,-2.1854,-2.185,-2.1792,-2.1813,-2.1756,-2.1756,-2.179,-2.1754,-2.1754,-2.1709,-2.1703,-2.1689,-2.1651,-2.1647,-2.1654,-2.1652,-2.1651,-2.165,0,0,0,0,0,0,0,-2.1941,-2.1933,-2.1857,-2.1857,-2.1852,-2.1838,-2.1829,-2.1802,-2.1753,-2.1787,-2.1783,-2.1775,-2.1707,-2.1692,-2.1686,-2.1646,-2.1654,-2.1652,-2.165,-2.1648,-2.1596,-2.1597,0,0,0,0,0,0,-2.1951,-2.1936,-2.186,-2.1855,-2.1893,-2.1836,-2.1826,-2.1811,-2.1754,-2.1744,-2.1775,-2.1773,-2.1697,-2.169,-2.1683,-2.1669,-2.1651,-2.1648,-2.1646,-2.1596,-2.1596,-2.1597,0,0,0,0,0,0,-2.1954,-2.1945,-2.1863,-2.1895,-2.1883,-2.1835,-2.1818,-2.181,-2.1795,-2.1745,-2.1735,-2.1769,-2.1697,-2.1687,-2.1663,-2.1665,-2.1647,-2.1644,-2.1595,-2.1596,-2.1597,-2.1641,0,0,0,0,0,0,-2.1957,-2.1946,-2.1943,-2.1895,-2.1882,-2.1845,-2.1818,-2.1808,-2.179,-2.1786,-2.1737,-2.1728,-2.1696,-2.1667,-2.166,-2.1661,-2.1642,-2.1595,-2.1596,-2.1596,-2.1639,-2.1643,-2.1647,0,0,0,0,0,-2.1961,-2.1958,-2.1943,-2.1934,-2.1877,-2.1845,-2.1838,-2.1802,-2.1791,-2.1787,-2.1755,-2.1729,-2.1667,-2.1665,-2.1656,-2.1657,-2.1594,-2.1595,-2.1596,-2.1638,-2.1643,-2.1647,0,0,0,0,0,0,-2.2006,-2.1951,-2.1934,-2.1916,-2.1886,-2.1837,-2.183,-2.1808,-2.1779,-2.1777,-2.1732,-2.1721,-2.1701,-2.1676,-2.1676,-2.1645,-2.1627,-2.1627,-2.1662,-2.1666,-2.167,-2.1676,-2.1639,0,0,0,0,0,-2.2014,-2.1994,-2.1947,-2.1935,-2.1921,-2.1879,-2.1863,-2.1839,-2.1805,-2.1792,-2.1758,-2.1725,-2.1698,-2.1681,-2.1653,-2.1636,-2.1624,-2.1632,-2.1635,-2.1639,-2.1638,-2.1627,-2.163,-2.16,-2.16,-2.16,0,0,-2.203,-2.1997,-2.1987,-2.1943,-2.1917,-2.1896,-2.1868,-2.1847,-2.1831,-2.1788,-2.1763,-2.1737,-2.1697,-2.1677,-2.1665,-2.1655,-2.1644,-2.164,-2.1643,-2.164,-2.1628,-2.1631,-2.1634,-2.16,-2.16,-2.16,0,0,-2.2048,-2.2022,-2.201,-2.1985,-2.1946,-2.1918,-2.1916,-2.187,-2.1852,-2.1826,-2.1794,-2.1773,-2.1727,-2.1701,-2.1681,-2.1691,-2.1666,-2.1683,-2.1702,-2.1692,-2.1694,-2.1696,-2.1699,-2.1701,-2.1683,-2.1683,-2.1683,0,-2.2072,-2.2041,-2.2005,-2.1987,-2.1968,-2.1931,-2.1917,-2.1894,-2.1848,-2.1835,-2.1825,-2.1768,-2.1738,-2.1711,-2.1713,-2.1699,-2.1693,-2.1688,-2.1697,-2.1699,-2.17,-2.1702,-2.1704,-2.1685,-2.1685,-2.1684,-2.1684,0,-2.2072,-2.2052,-2.2046,-2.2005,-2.1985,-2.1969,-2.193,-2.1915,-2.1892,-2.1865,-2.184,-2.1803,-2.1768,-2.1759,-2.1736,-2.1729,-2.1724,-2.1706,-2.1687,-2.1706,-2.1707,-2.1708,-2.1688,-2.1687,-2.1687,-2.1686,0,0,-2.2115,-2.2056,-2.2055,-2.2036,-2.1991,-2.1974,-2.1956,-2.1923,-2.191,-2.188,-2.1863,-2.1826,-2.181,-2.1788,-2.1762,-2.1753,-2.1763,-2.1736,-2.1734,-2.1742,-2.1752,-2.1765,-2.1767,-2.1747,-2.1747,-2.1747,-2.1755,0,-2.2127,-2.2095,-2.2063,-2.2041,-2.2021,-2.1986,-2.197,-2.1941,-2.1915,-2.1893,-2.1864,-2.1839,-2.1819,-2.1806,-2.1796,-2.1764,-2.1764,-2.1763,-2.173,-2.1729,-2.1741,-2.1768,-2.1782,-2.1791,-2.1756,-2.1756,-2.1756,0,-2.2135,-2.2109,-2.2087,-2.2045,-2.2035,-2.2022,-2.199,-2.197,-2.1935,-2.1917,-2.1894,-2.1866,-2.1844,-2.1829,-2.1798,-2.1798,-2.1783,-2.1765,-2.1765,-2.1759,-2.1743,-2.1763,-2.1793,-2.1795,-2.1756,-2.1756,-2.1756,0,-2.2169,-2.2128,-2.2109,-2.2094,-2.2045,-2.2036,-2.2015,-2.198,-2.1963,-2.1934,-2.1922,-2.1891,-2.1873,-2.1849,-2.1814,-2.1806,-2.1787,-2.1768,-2.177,-2.1771,-2.1767,-2.1767,-2.1795,-2.1758,-2.1758,-2.1758,-2.1758,0,-2.2185,-2.2172,-2.2123,-2.2112,-2.2097,-2.206,-2.2045,-2.202,-2.199,-2.1972,-2.1939,-2.1923,-2.1877,-2.1855,-2.1827,-2.1806,-2.1798,-2.1782,-2.1775,-2.1785,-2.1787,-2.1773,-2.1772,-2.1758,-2.1758,-2.1758,-2.1758,0,-2.2219,-2.2186,-2.2163,-2.212,-2.2108,-2.2099,-2.2061,-2.2048,-2.2021,-2.1999,-2.1991,-2.1949,-2.1921,-2.1884,-2.1844,-2.1825,-2.1807,-2.1796,-2.1819,-2.1815,-2.1819,-2.1819,-2.1838,-2.1839,-2.1802,-2.1803,-2.1803,0,-2.2231,-2.2221,-2.2177,-2.2163,-2.2144,-2.2123,-2.2105,-2.2068,-2.2051,-2.2012,-2.2004,-2.1974,-2.1948,-2.1906,-2.187,-2.184,-2.1827,-2.1836,-2.1822,-2.1833,-2.1826,-2.1828,-2.1826,-2.1839,-2.1839,-2.184,-2.184,0,-2.2255,-2.224,-2.2217,-2.2189,-2.217,-2.2145,-2.2119,-2.211,-2.2067,-2.205,-2.2022,-2.2003,-2.1963,-2.1934,-2.1899,-2.1875,-2.185,-2.1845,-2.1844,-2.1854,-2.1868,-2.186,-2.1828,-2.1845,-2.1844,-2.1844,-2.1844,-2.1843,-2.2278,-2.2268,-2.2236,-2.2212,-2.2189,-2.2165,-2.2151,-2.2124,-2.2101,-2.2067,-2.2046,-2.202,-2.1986,-2.1937,-2.1914,-2.1892,-2.1882,-2.188,-2.188,-2.188,-2.1883,-2.1873,-2.1886,-2.1885,-2.1885,-2.1885,-2.1885,0,-2.2301,-2.2279,-2.2257,-2.2223,-2.2204,-2.2185,-2.2155,-2.214,-2.2117,-2.2089,-2.2065,-2.2033,-2.2005,-2.1968,-2.1937,-2.1926,-2.1914,-2.1919,-2.1919,-2.1914,-2.1894,-2.1898,-2.193,-2.193,-2.193,-2.193,-2.193,-2.193,-2.231,-2.2292,-2.2273,-2.2243,-2.222,-2.2196,-2.218,-2.2158,-2.2135,-2.2102,-2.208,-2.2057,-2.2024,-2.1991,-2.1964,-2.1953,-2.1943,-2.1952,-2.1938,-2.192,-2.1916,-2.1912,-2.1915,-2.195,-2.195,-2.196,-2.196,-2.196]}]]